Regional Weather Roundup
Issued by NWS

Home | Current Version | Previous Version | Text Only | Print | Product List | Glossary Off
Versions: 1 2 3 4 5 6 7 8 9 10 11 12 13 14 15 16 17 18 19 20 21 22 23 24 25 26 27 28 29 30 31 32 33 34 35 36 37 38 39 40 41 42 43 44 45 46 47 48 49 50

572
ASUS45 KBOI 232110
RWRID

IDAHO REGIONAL WEATHER ROUNDUP
NATIONAL WEATHER SERVICE BOISE ID
300 PM MDT THU MAR 23 2017

NOTE: "FAIR" INDICATES FEW OR NO CLOUDS BELOW 12000 FEET
WITH NO SIGNIFICANT WEATHER AND/OR OBSTRUCTIONS TO VISIBILITY

IDZ012-014-232200-
SOUTHWEST IDAHO


CITY           SKY/WX    TMP DP  RH WIND       PRES   REMARKS
BOISE          FAIR      53  25  33 NW14G22   30.03F
CALDWELL       FAIR      55  30  38 W8G18     30.04F
MOUNTAIN HOME  FAIR      55  27  34 NW24G32   30.01F
$$

IDZ016-017-232200-
SOUTHCENTRAL IDAHO


CITY           SKY/WX    TMP DP  RH WIND       PRES   REMARKS
BURLEY         FAIR      52  29  41 W25G36    29.91F
JEROME         FAIR      52  29  41 W30G38    29.95R
TWIN FALLS     FAIR      50  23  34 W31G43    29.96R
$$

IDZ019>023-232200-
SOUTHEAST IDAHO


CITY           SKY/WX    TMP DP  RH WIND       PRES   REMARKS
IDAHO FALLS    MOSUNNY   55  29  36 NW10G22   29.84S
POCATELLO      MOSUNNY   50  38  63 W22       29.89F
REXBURG        CLOUDY    54  25  32 NE9G18    29.83S
$$

IDZ006-010-011-018-031-032-232200-
CENTRAL IDAHO MOUNTAINS


CITY           SKY/WX    TMP DP  RH WIND       PRES   REMARKS
MCCALL         FAIR      44  16  32 VRB5      29.96F
HAILEY         MOSUNNY   50  28  43 S6        29.89F
STANLEY          N/A     42  20  41 N6        29.95S
SALMON         SUNNY     52  19  28 CALM      29.91S
CHALLIS        FAIR      51  20  29 CALM      29.90F
$$

IDZ002-004-006-007-026-232200-
NORTHERN IDAHO


CITY           SKY/WX    TMP DP  RH WIND       PRES   REMARKS
LEWISTON       FAIR      52  33  48 CALM      30.06F
LOWELL           N/A     55  34  45 S8        30.07F
COEUR D`ALENE  CLOUDY    45  30  55 S7        30.06F
MULLAN PASS    CLOUDY    28  24  85 VRB3      29.98S
$$




USA.gov is the U.S. government's official web portal to all federal, state and local government web resources and services.